Temp
51 51 51 51 51 51 52 51 51 51 51 51 51 51 50 50 50 46 39 40 37 31 32 32 33 28 27 23 16 17 18 17 16 6 2 16 6 17 13 18 16 14 3 -3 -6 -6 0 24 24 17 21 24 24 26
50 50 51 51 51 51 51 51 51 51 51 51 51 51 51 51 51 49 38 41 42 34 31 33 37 39 37 33 26 17 22 13 22 14 9 9 4 4 8 2 22 11 17 7 11 10 26 28 26 32 28 24 26 27
50 50 49 50 50 50 51 50 51 51 50 50 50 51 50 50 50 48 40 39 37 32 32 31 31 36 38 38 41 28 20 31 27 28 21 21 14 18 6 6 13 20 25 21 21 26 27 30 33 30 31 31 31 29
48 49 49 49 49 49 49 49 50 50 50 50 50 50 50 49 49 48 39 40 38 33 26 25 31 31 37 38 36 37 35 31 31 29 25 21 17 26 20 22 19 23 22 17 20 27 28 30 31 33 33 32 27 26
47 48 48 48 49 49 49 49 49 49 49 49 49 49 49 49 49 45 40 40 40 33 25 20 21 30 33 33 32 34 32 31 30 26 23 20 24 25 24 24 19 27 24 20 18 29 28 30 33 29 27 26 22 20
47 47 47 47 48 48 48 48 48 48 48 48 48 49 49 49 47 38 31 40 41 39 29 22 27 22 29 29 29 29 30 30 29 27 25 28 30 26 19 17 26 30 30 31 27 32 31 32 25 23 21 19 20 18
46 46 46 47 47 47 48 48 48 48 48 48 48 48 48 48 40 34 31 33 42 39 29 23 21 20 27 27 22 26 29 27 28 27 25 26 27 28 22 17 28 29 30 31 24 23 26 24 20 18 18 17 15 14
45 46 46 46 46 47 47 47 47 47 47 47 47 47 47 47 44 36 40 43 41 34 30 21 15 11 23 16 18 27 24 27 27 26 23 25 26 26 18 27 29 30 22 18 15 16 16 15 16 14 13 11 8 8
45 45 45 45 46 46 46 46 47 47 47 47 47 46 40 36 32 34 44 43 39 33 23 21 9 6 25 22 24 19 26 18 27 21 24 23 18 15 21 27 26 11 12 8 10 10 9 8 8 8 6 5 3 5
43 43 44 44 44 45 45 46 45 45 46 46 41 32 28 32 41 41 35 31 29 29 28 21 5 6 24 21 15 16 22 18 14 17 25 20 19 27 15 9 9 8 6 6 3 3 -0 -1 1 2 2 3 3 3
42 43 43 43 43 44 44 45 45 45 45 35 30 28 32 40 30 29 24 24 25 20 25 18 16 12 23 17 18 24 16 14 8 9 11 4 0 17 7 6 9 7 5 2 1 1 1 -0 -1 -1 -0 0 -1 -2
43 42 42 43 43 42 42 42 44 40 34 34 33 34 34 29 24 21 19 20 18 14 10 14 19 24 21 23 17 19 15 14 7 3 11 8 13 2 2 1 1 0 -4 -5 -4 -4 -2 -0 -1 -3 -4 -5 -4 -4
42 42 43 42 42 43 43 44 44 44 38 33 29 25 25 23 17 15 9 7 5 3 5 11 15 19 20 23 19 18 12 9 1 6 6 5 -0 -4 -6 -5 -5 -6 -7 -8 -7 -6 -5 -6 -5 -7 -8 -6 -6 -7
42 42 42 42 42 42 43 43 43 41 33 26 22 17 17 14 12 9 5 4 11 8 5 9 12 16 14 17 19 11 10 10 6 5 -1 -3 -10 -13 -10 -7 -15 -13 -15 -11 -12 -10 -10 -9 -9 -8 -9 -8 -9 -10
41 41 41 41 42 42 42 42 43 37 30 23 21 14 16 -0 -5 -12 -12 1 6 10 13 10 7 22 9 14 18 12 7 6 7 3 -2 -12 -10 -8 -9 -14 -19 -18 -15 -15 -15 -16 -13 -12 -12 -12 -12 -12 -11 -8
41 41 33 41 41 42 42 41 36 32 28 24 18 12 -3 -0 -9 -9 -13 -6 2 12 7 11 8 13 11 14 13 10 6 -0 4 -12 -14 -8 -9 -12 -18 -21 -19 -19 -20 -19 -19 -18 -14 -14 -14 -13 -12 -13 -9 -6
40 29 39 41 41 41 41 27 26 20 17 13 5 -1 2 7 5 -7 -7 -1 8 5 1 9 10 7 13 8 2 1 1 -5 -15 -12 -11 -13 -17 -20 -22 -24 -22 -23 -22 -21 -25 -21 -20 -18 -18 -20 -17 -12 -6 -2
17 26 38 41 38 34 23 20 16 13 5 2 3 -12 -11 -15 -14 -10 -7 4 8 9 9 9 11 5 3 -0 -3 -4 -15 -24 -24 -22 -18 -21 -25 -27 -29 -25 -21 -23 -23 -22 -22 -22 -26 -21 -17 -11 -6 -3 -3 -2
30 31 37 38 33 23 17 9 12 3 -10 -14 -7 -5 -9 -12 -4 -4 -5 3 3 2 6 6 7 -0 -3 -15 -19 -27 -30 -26 -22 -16 -18 -22 -20 -25 -25 -24 -23 -24 -24 -24 -23 -16 -11 -7 -5 -4 -3 -2 -4 -3
32 32 34 33 30 18 10 6 10 3 -11 -7 -7 -11 -8 -6 -7 -9 -4 1 3 2 5 2 -5 -18 -16 -20 -21 -22 -20 -17 -23 -26 -23 -17 -17 -25 -21 -23 -20 -21 -21 -18 -11 -6 -6 -6 -5 -4 -3 -2 -3 -4
25 24 26 21 15 12 8 6 1 1 -1 -4 -2 -2 -7 -6 -9 -9 -7 -6 -0 -1 -10 -25 -29 -30 -32 -33 -30 -28 -19 -17 -23 -23 -23 -22 -18 -20 -21 -20 -20 -19 -13 -10 -10 -9 -7 -8 -7 -5 -5 -4 -3 -2
16 23 17 18 11 7 4 4 -0 0 -4 -9 -6 -6 -7 -6 -9 -11 -11 -10 -16 -21 -24 -25 -29 -32 -31 -27 -27 -33 -30 -31 -33 -25 -19 -19 -19 -17 -19 -18 -14 -12 -10 -10 -11 -10 -9 -8 -6 -6 -7 -6 -4 -4
16 16 9 8 6 3 -4 3 -3 -5 -4 -7 -8 -7 -11 -13 -17 -8 -11 -24 -26 -25 -34 -34 -35 -38 -31 -34 -35 -33 -35 -29 -27 -24 -20 -15 -11 -10 -10 -10 -10 -11 -11 -10 -9 -9 -9 -7 -8 -8 -8 -8 -8 -9
7 -5 -6 -6 -2 -6 -7 -7 -5 -7 -10 -16 -18 -21 -23 -26 -17 -18 -20 -31 -27 -31 -31 -31 -33 -27 -28 -28 -27 -26 -24 -25 -23 -22 -18 -12 -11 -11 -9 -8 -8 -9 -10 -10 -9 -10 -9 -10 -9 -10 -11 -13 -14 -15
-1 -17 -15 -19 -16 -10 -13 -18 -20 -16 -19 -25 -22 -22 -22 -28 -22 -24 -22 -26 -32 -33 -31 -36 -33 -28 -27 -31 -27 -25 -24 -20 -16 -17 -12 -10 -10 -10 -9 -8 -8 -9 -10 -11 -12 -13 -13 -13 -13 -13 -14 -18 -18 -18
-23 -27 -23 -33 -24 -20 -26 -23 -26 -25 -27 -26 -28 -30 -35 -28 -23 -19 -23 -27 -33 -29 -28 -22 -21 -25 -23 -21 -18 -16 -13 -10 -11 -11 -9 -8 -8 -11 -14 -13 -13 -11 -11 -14 -16 -17 -16 -15 -17 -16 -15 -14 -15 -20
-26 -28 -26 -28 -27 -28 -27 -29 -30 -26 -27 -24 -29 -27 -26 -22 -23 -19 -25 -25 -25 -25 -21 -15 -13 -15 -17 -19 -13 -12 -10 -8 -8 -9 -11 -11 -10 -10 -10 -12 -12 -10 -12 -14 -15 -17 -18 -17 -16 -16 -16 -17 -24 -26
-29 -32 -26 -28 -30 -36 -32 -33 -31 -27 -28 -30 -28 -22 -20 -18 -18 -19 -17 -18 -23 -20 -19 -18 -16 -15 -15 -11 -10 -7 -8 -11 -13 -12 -12 -11 -11 -11 -10 -9 -9 -2 -8 -11 -12 -13 -16 -17 -18 -18 -18 -17 -16 -25
-29 -34 -32 -27 -28 -24 -29 -27 -29 -32 -30 -34 -26 -25 -24 -23 -25 -28 -21 -16 -21 -16 -17 -14 -13 -13 -11 -10 -11 -9 -10 -12 -13 -13 -15 -14 -13 -10 -11 -10 -11 -12 -14 -16 -10 -5 -11 -15 -15 -15 -13 -17 -19 -29
-29 -35 -24 -27 -24 -25 -30 -36 -36 -41 -42 -37 -38 -28 -27 -27 -28 -29 -25 -22 -18 -18 -18 -17 -16 -11 -11 -12 -14 -13 -18 -16 -12 -12 -17 -17 -14 -17 -23 -22 -19 -19 -25 -29 -19 -19 -14 -18 -21 -25 -24 -23 -24 -25
-40 -41 -33 -34 -29 -36 -41 -47 -49 -47 -46 -45 -49 -38 -33 -35 -29 -30 -27 -24 -22 -22 -19 -20 -23 -28 -23 -26 -25 -24 -18 -21 -22 -19 -20 -20 -22 -22 -21 -19 -18 -22 -26 -25 -24 -25 -23 -24 -27 -25 -23 -21 -21 -20
-40 -41 -33 -26 -30 -40 -46 -46 -47 -42 -44 -40 -37 -48 -36 -32 -25 -22 -25 -30 -30 -28 -23 -26 -27 -17 -21 -19 -26 -24 -16 -23 -26 -19 -19 -16 -15 -14 -14 -14 -18 -24 -24 -21 -21 -22 -23 -24 -21 -20 -18 -19 -19 -20
-42 -46 -48 -39 -33 -32 -39 -39 -37 -35 -39 -39 -38 -45 -45 -37 -26 -22 -24 -32 -26 -25 -25 -22 -22 -27 -25 -23 -19 -17 -14 -16 -17 -7 -4 -5 -7 -7 -12 -14 -16 -18 -19 -18 -18 -18 -19 -20 -18 -18 -18 -18 -17 -17
MSLP
1013.43 1013.51 1013.56 1013.68 1013.81 1013.93 1013.99 1014.14 1014.35 1014.52 1014.72 1014.97 1015.23 1015.49 1015.89 1016.12 1016.40 1016.93 1017.49 1017.84 1018.37 1018.31 1017.89 1018.12 1018.09 1018.45 1018.94 1019.42 1020.50 1020.92 1021.53 1021.51 1021.88 1022.31 1023.03 1022.72 1022.29 1021.13 1020.47 1019.63 1019.06 1019.31 1019.97 1020.65 1020.69 1019.66 1017.85 1015.68 1015.37 1015.64 1015.22 1015.10 1015.20 1015.24
1012.34 1012.44 1012.47 1012.60 1012.63 1012.82 1012.98 1013.22 1013.38 1013.60 1013.87 1014.11 1014.38 1014.70 1014.90 1015.14 1015.48 1016.03 1016.44 1016.74 1017.12 1017.42 1017.00 1017.00 1016.84 1016.55 1017.03 1017.48 1018.62 1020.08 1020.09 1020.25 1020.52 1021.20 1022.03 1021.99 1021.93 1021.38 1020.32 1019.84 1018.83 1018.97 1018.45 1019.22 1019.13 1016.95 1015.68 1015.13 1014.77 1014.25 1014.30 1014.70 1014.49 1014.58
1011.32 1011.41 1011.51 1011.63 1011.76 1011.91 1012.02 1012.29 1012.53 1012.68 1013.05 1013.29 1013.59 1013.85 1014.20 1014.45 1014.70 1015.00 1015.54 1016.18 1016.46 1016.31 1016.18 1016.52 1015.78 1015.69 1015.93 1016.26 1016.54 1018.00 1018.51 1018.57 1019.06 1019.07 1020.03 1020.32 1020.25 1019.77 1019.56 1018.47 1018.10 1017.36 1017.38 1017.43 1017.10 1015.19 1014.87 1014.11 1013.65 1013.65 1013.56 1013.72 1013.54 1013.70
1010.35 1010.40 1010.49 1010.59 1010.74 1010.95 1011.14 1011.37 1011.56 1011.82 1012.08 1012.39 1012.69 1013.03 1013.22 1013.59 1013.80 1014.06 1014.68 1015.08 1015.39 1015.66 1015.31 1014.73 1014.73 1014.84 1014.49 1015.28 1015.78 1016.11 1016.56 1017.45 1017.74 1018.39 1018.65 1018.57 1018.43 1017.73 1017.16 1016.65 1016.35 1016.02 1016.09 1015.75 1014.93 1013.99 1013.84 1013.29 1012.97 1012.98 1013.07 1013.28 1013.72 1014.04
1009.29 1009.36 1009.46 1009.60 1009.71 1009.89 1010.12 1010.33 1010.55 1010.79 1011.13 1011.47 1011.81 1012.11 1012.42 1012.71 1012.97 1013.26 1013.69 1013.93 1014.53 1014.79 1014.15 1014.97 1014.84 1013.97 1013.82 1014.28 1015.02 1015.51 1016.08 1016.64 1017.11 1017.35 1017.03 1016.64 1016.25 1016.57 1015.71 1015.67 1014.40 1014.51 1013.94 1014.52 1013.34 1012.82 1012.91 1012.58 1012.31 1012.92 1013.49 1014.01 1014.62 1014.99
1008.26 1008.29 1008.36 1008.51 1008.69 1008.85 1009.01 1009.23 1009.49 1009.80 1010.10 1010.44 1010.83 1011.15 1011.44 1011.81 1012.32 1013.24 1012.86 1012.50 1012.96 1013.57 1013.94 1013.98 1013.85 1013.57 1013.66 1013.97 1014.35 1014.81 1015.21 1015.73 1016.17 1015.95 1015.53 1015.07 1014.73 1014.77 1014.16 1013.32 1012.41 1012.86 1013.03 1013.07 1012.52 1012.32 1012.51 1012.55 1013.28 1014.07 1014.63 1015.19 1015.50 1015.86
1007.24 1007.29 1007.36 1007.45 1007.56 1007.69 1007.86 1008.07 1008.33 1008.62 1008.99 1009.34 1009.75 1010.16 1010.67 1011.00 1011.64 1011.88 1011.65 1011.81 1011.77 1012.80 1013.30 1013.35 1013.42 1013.44 1013.39 1013.68 1014.29 1014.34 1014.50 1014.68 1014.98 1015.00 1014.29 1014.07 1013.68 1013.80 1013.04 1012.14 1012.05 1012.59 1012.56 1012.52 1012.98 1013.29 1013.19 1013.86 1014.66 1015.43 1015.83 1016.20 1016.40 1016.53
1006.24 1006.23 1006.25 1006.31 1006.40 1006.53 1006.70 1006.90 1007.16 1007.49 1007.92 1008.36 1008.81 1009.29 1009.71 1010.09 1010.51 1010.68 1010.60 1011.36 1011.79 1012.19 1012.31 1012.79 1013.48 1014.23 1013.29 1013.90 1014.20 1013.75 1014.07 1014.29 1014.08 1013.71 1013.33 1013.05 1013.11 1013.09 1012.05 1011.71 1012.17 1012.33 1013.20 1013.91 1014.73 1015.11 1015.48 1015.95 1016.33 1016.72 1017.06 1017.13 1016.92 1016.89
1005.26 1005.21 1005.21 1005.26 1005.37 1005.53 1005.68 1005.84 1006.11 1006.51 1006.99 1007.49 1008.01 1008.58 1009.13 1009.41 1009.64 1009.69 1009.89 1010.32 1010.80 1011.31 1011.32 1011.89 1013.00 1013.29 1012.90 1012.98 1013.07 1013.59 1013.42 1013.76 1013.03 1012.87 1012.46 1012.72 1012.39 1011.82 1011.64 1012.40 1013.03 1014.19 1015.05 1015.92 1016.44 1016.69 1016.98 1017.34 1017.63 1017.96 1018.22 1018.28 1018.23 1017.59
1004.47 1004.44 1004.35 1004.40 1004.65 1004.68 1004.73 1004.89 1005.24 1005.77 1006.21 1006.75 1007.61 1007.95 1007.98 1008.25 1008.33 1008.96 1009.44 1009.58 1009.49 1009.64 1010.25 1010.86 1011.98 1012.56 1012.15 1012.51 1012.87 1013.50 1013.12 1012.88 1012.87 1012.21 1011.97 1012.23 1011.70 1011.91 1012.89 1014.05 1015.04 1016.12 1017.05 1017.65 1018.09 1018.42 1018.65 1018.76 1018.83 1018.91 1018.99 1019.06 1018.96 1018.61
1003.61 1003.54 1003.57 1003.58 1003.69 1003.81 1003.79 1003.88 1004.37 1005.01 1005.57 1005.98 1006.11 1006.92 1007.45 1007.66 1008.41 1009.11 1009.28 1009.37 1009.34 1009.56 1009.78 1010.32 1010.67 1011.36 1011.31 1011.61 1012.00 1012.48 1012.28 1012.41 1012.74 1012.30 1012.95 1013.09 1013.23 1013.59 1014.99 1015.94 1016.86 1017.80 1018.63 1019.33 1019.79 1019.94 1020.09 1020.06 1019.86 1019.60 1019.43 1019.48 1019.36 1019.08
1002.47 1002.70 1002.71 1002.76 1002.90 1003.10 1003.38 1003.57 1003.70 1004.30 1004.77 1005.01 1005.85 1006.52 1007.41 1007.71 1008.43 1009.00 1009.08 1009.57 1009.98 1010.29 1010.54 1010.42 1010.30 1010.20 1010.83 1011.16 1011.59 1011.67 1011.87 1012.24 1012.47 1012.86 1013.97 1014.57 1014.72 1015.81 1017.05 1018.11 1018.84 1019.58 1020.23 1020.63 1020.90 1020.83 1020.70 1020.57 1020.53 1020.40 1020.07 1019.71 1019.41 1019.01
1001.42 1001.61 1001.67 1001.91 1002.02 1002.20 1002.46 1002.77 1003.06 1003.51 1004.74 1005.05 1005.49 1005.90 1006.56 1007.11 1008.07 1008.67 1009.60 1010.31 1010.71 1010.98 1010.81 1010.77 1010.61 1010.31 1010.75 1010.58 1010.81 1010.98 1011.37 1012.23 1013.20 1014.18 1014.75 1015.35 1016.11 1017.88 1019.06 1019.90 1020.41 1021.02 1021.43 1021.54 1021.52 1021.47 1021.26 1021.00 1020.89 1020.74 1020.22 1019.87 1019.36 1018.76
1000.60 1000.66 1000.81 1001.06 1001.26 1001.44 1001.66 1001.98 1002.44 1003.07 1004.02 1004.03 1004.65 1005.45 1006.08 1007.17 1008.10 1008.78 1010.01 1010.43 1010.10 1010.14 1010.42 1010.45 1010.46 1010.30 1010.25 1010.19 1009.87 1010.58 1011.21 1012.65 1014.25 1015.30 1015.79 1016.10 1017.98 1019.63 1020.89 1021.34 1021.86 1022.19 1022.20 1022.22 1022.13 1021.91 1021.55 1021.16 1020.77 1020.61 1020.23 1019.66 1019.10 1018.38
999.74 999.73 999.91 1000.09 1000.45 1000.72 1001.01 1001.43 1001.83 1002.58 1003.26 1003.40 1003.77 1005.00 1006.42 1007.82 1009.21 1010.28 1010.42 1010.64 1010.66 1010.37 1010.56 1010.85 1010.56 1010.06 1010.25 1010.23 1010.14 1010.86 1012.56 1013.47 1014.59 1015.69 1016.42 1018.14 1019.73 1020.96 1021.81 1022.44 1022.94 1023.02 1022.97 1022.89 1022.59 1022.24 1021.66 1021.17 1020.70 1020.16 1019.64 1019.15 1018.64 1017.81
998.94 999.09 999.36 999.54 999.73 1000.05 1000.42 1000.86 1001.49 1002.41 1002.84 1003.52 1004.34 1006.38 1008.47 1009.69 1011.49 1012.01 1012.01 1011.75 1011.43 1010.74 1010.49 1010.27 1010.30 1010.22 1010.46 1010.71 1011.19 1011.93 1013.67 1014.75 1015.54 1016.95 1018.45 1019.78 1021.09 1022.13 1022.92 1023.37 1023.54 1023.51 1023.43 1023.10 1022.56 1022.00 1021.43 1020.86 1020.35 1019.69 1019.05 1018.44 1017.63 1016.92
998.50 998.96 998.80 998.89 999.14 999.55 1000.08 1001.17 1001.97 1002.79 1003.87 1005.59 1007.60 1008.53 1009.71 1010.36 1011.08 1012.07 1011.90 1011.71 1011.52 1011.51 1010.99 1010.76 1010.82 1010.51 1011.18 1012.18 1013.29 1013.88 1015.24 1016.25 1017.83 1019.34 1020.34 1021.46 1022.45 1023.19 1023.73 1023.87 1023.72 1023.56 1023.34 1022.86 1022.33 1021.63 1021.01 1020.18 1019.59 1018.99 1018.41 1017.34 1016.75 1016.09
999.11 999.02 998.38 998.23 998.74 999.52 1001.48 1002.45 1003.38 1004.76 1006.61 1008.42 1009.55 1010.78 1011.35 1012.01 1012.81 1012.79 1012.40 1011.96 1011.71 1011.62 1011.41 1011.25 1011.24 1012.44 1013.36 1014.46 1015.30 1016.31 1017.73 1019.08 1020.19 1020.99 1021.79 1022.31 1022.99 1023.49 1023.67 1023.97 1023.46 1023.17 1022.89 1022.40 1021.79 1021.07 1020.23 1019.48 1018.87 1018.09 1017.30 1016.72 1016.13 1015.58
999.46 999.14 998.76 998.35 999.27 1000.80 1002.66 1004.36 1004.89 1006.67 1009.45 1010.62 1011.57 1012.22 1012.61 1013.14 1013.50 1013.57 1012.94 1012.71 1012.79 1012.65 1012.29 1012.87 1014.03 1015.18 1015.62 1016.65 1017.95 1018.92 1020.39 1020.82 1021.89 1022.13 1022.42 1022.69 1022.84 1023.18 1023.25 1023.17 1022.96 1022.70 1022.23 1021.68 1021.00 1020.33 1019.58 1018.81 1018.16 1017.55 1016.87 1016.34 1015.94 1015.55
999.91 999.81 999.21 999.42 999.65 1002.03 1004.73 1006.61 1007.07 1008.21 1010.65 1011.67 1012.32 1013.18 1013.53 1014.05 1014.41 1014.60 1014.51 1014.06 1013.95 1013.82 1014.40 1015.61 1016.71 1017.87 1018.50 1019.38 1020.26 1020.84 1021.31 1021.77 1022.29 1022.92 1023.17 1022.97 1022.80 1022.82 1022.74 1022.72 1022.56 1022.17 1021.70 1021.09 1020.52 1019.90 1019.20 1018.50 1017.96 1017.48 1016.89 1016.35 1015.99 1015.66
1000.52 1000.78 1000.71 1000.67 1002.69 1004.39 1006.56 1007.90 1009.21 1010.33 1011.30 1012.25 1013.27 1013.82 1014.73 1015.07 1015.44 1015.83 1015.65 1015.50 1015.44 1015.88 1017.31 1018.53 1019.63 1020.59 1021.23 1021.69 1021.77 1021.93 1022.38 1022.42 1022.57 1022.63 1022.75 1023.00 1022.49 1022.37 1022.24 1022.20 1022.05 1021.72 1021.30 1021.00 1020.44 1019.78 1019.23 1018.80 1018.31 1017.73 1017.21 1016.71 1016.33 1016.04
1001.89 1001.54 1001.95 1002.33 1004.13 1006.37 1008.18 1009.50 1010.25 1011.41 1012.35 1013.43 1014.01 1014.82 1015.51 1016.08 1016.64 1016.89 1017.04 1016.65 1017.67 1018.93 1019.87 1020.58 1021.46 1021.85 1022.51 1022.79 1022.90 1022.70 1022.68 1022.64 1022.61 1022.44 1022.32 1022.20 1022.17 1022.03 1022.12 1021.87 1021.58 1021.37 1021.07 1020.81 1020.43 1020.05 1019.60 1019.13 1018.67 1018.21 1017.76 1017.31 1016.95 1016.70
1002.61 1002.73 1004.24 1005.14 1006.42 1008.20 1010.90 1010.72 1011.45 1012.63 1013.51 1014.74 1015.43 1016.10 1017.35 1017.67 1017.58 1017.25 1017.85 1019.03 1019.88 1020.68 1021.38 1021.94 1022.34 1022.66 1023.01 1022.94 1022.91 1022.89 1023.12 1022.64 1022.77 1022.26 1021.89 1021.66 1021.51 1021.41 1021.32 1021.26 1021.20 1021.10 1020.89 1020.68 1020.47 1020.21 1019.86 1019.46 1019.12 1018.76 1018.45 1018.11 1017.80 1017.52
1004.59 1007.06 1008.58 1009.44 1010.08 1011.90 1012.37 1012.93 1013.44 1014.24 1015.05 1015.95 1016.89 1018.12 1018.84 1019.10 1018.61 1018.93 1019.88 1020.41 1020.87 1021.60 1022.31 1022.78 1022.74 1023.28 1023.15 1022.94 1023.00 1022.87 1022.38 1022.28 1021.95 1021.70 1021.43 1021.27 1021.09 1020.91 1020.81 1020.75 1020.76 1020.83 1020.81 1020.69 1020.52 1020.35 1020.07 1019.80 1019.51 1019.19 1018.96 1018.78 1018.60 1018.47
1007.46 1013.49 1013.75 1014.20 1014.51 1014.62 1015.22 1015.81 1016.16 1016.51 1017.68 1018.51 1019.15 1019.92 1020.17 1020.21 1020.10 1020.31 1020.72 1020.68 1021.50 1022.48 1022.21 1022.74 1022.90 1022.60 1022.73 1022.35 1022.24 1021.73 1021.26 1021.33 1021.34 1021.31 1020.75 1020.68 1020.65 1020.58 1020.49 1020.40 1020.35 1020.48 1020.62 1020.70 1020.65 1020.53 1020.33 1020.09 1019.83 1019.55 1019.30 1019.25 1019.04 1018.93
1013.66 1017.64 1017.89 1018.25 1018.03 1017.81 1018.57 1018.63 1018.88 1019.26 1019.54 1020.12 1020.66 1020.87 1020.80 1020.84 1020.79 1020.32 1020.02 1020.29 1020.71 1021.19 1021.17 1021.28 1021.41 1021.56 1021.41 1021.09 1020.98 1020.77 1020.41 1020.36 1020.56 1020.65 1020.24 1020.12 1020.17 1020.30 1020.36 1020.42 1020.38 1020.31 1020.42 1020.61 1020.72 1020.67 1020.42 1020.14 1019.96 1019.59 1019.30 1019.09 1019.13 1019.21
1018.01 1020.16 1020.36 1020.18 1020.11 1020.14 1020.41 1020.61 1020.72 1020.85 1021.41 1021.69 1021.95 1021.91 1021.74 1021.41 1020.77 1019.53 1019.14 1019.28 1019.63 1019.43 1019.34 1019.27 1019.57 1019.92 1020.10 1019.94 1019.88 1019.61 1019.58 1019.70 1019.79 1019.76 1019.70 1019.74 1019.71 1019.74 1019.91 1020.00 1019.95 1019.77 1019.86 1020.15 1020.29 1020.31 1020.26 1020.01 1019.70 1019.42 1019.26 1019.02 1019.03 1019.06
1021.13 1022.18 1022.33 1022.16 1021.78 1022.21 1022.39 1022.75 1023.04 1023.28 1023.37 1023.36 1023.19 1022.61 1022.01 1020.81 1020.12 1018.94 1018.73 1018.59 1018.76 1018.49 1018.57 1018.66 1018.77 1018.94 1019.17 1019.08 1019.09 1019.32 1019.59 1019.62 1019.71 1019.57 1019.37 1019.19 1019.07 1019.07 1019.15 1019.20 1019.20 1019.23 1019.36 1019.44 1019.54 1019.60 1019.65 1019.49 1019.26 1019.06 1018.99 1018.85 1018.61 1018.65
1023.16 1023.46 1023.40 1023.29 1023.10 1023.39 1024.21 1024.65 1025.16 1025.05 1024.83 1024.82 1024.21 1023.14 1022.02 1020.52 1019.66 1019.46 1018.80 1018.62 1018.49 1018.60 1018.94 1018.97 1019.05 1018.97 1019.08 1019.14 1019.23 1019.33 1019.48 1019.73 1019.97 1019.81 1019.69 1019.49 1019.28 1018.84 1018.51 1018.68 1018.76 1018.83 1018.93 1019.08 1018.96 1018.78 1018.67 1018.67 1018.33 1018.14 1018.09 1018.18 1018.12 1018.24
1025.14 1025.01 1024.40 1024.34 1024.37 1024.99 1025.55 1026.03 1026.58 1026.28 1026.02 1025.93 1025.64 1024.05 1022.69 1021.14 1019.64 1019.06 1019.00 1018.95 1019.05 1018.96 1019.02 1018.98 1019.03 1019.30 1019.47 1019.55 1019.50 1019.51 1019.32 1019.38 1019.40 1019.58 1019.41 1019.26 1019.37 1019.00 1018.74 1018.74 1018.68 1018.53 1018.63 1018.82 1018.74 1018.45 1018.24 1018.11 1017.92 1017.92 1017.81 1017.84 1017.78 1017.70
1026.27 1025.91 1025.62 1025.31 1025.53 1025.92 1026.63 1027.18 1027.18 1027.07 1026.69 1026.45 1026.15 1025.81 1024.30 1022.61 1020.35 1019.04 1019.02 1018.85 1018.81 1018.97 1019.29 1019.50 1019.62 1019.90 1019.84 1019.65 1019.73 1019.86 1019.56 1018.88 1018.70 1018.66 1018.65 1018.65 1018.59 1018.55 1018.35 1018.15 1018.02 1018.05 1018.14 1018.29 1018.32 1018.00 1017.83 1017.77 1017.60 1017.46 1017.23 1016.96 1016.61 1016.49
1026.96 1027.31 1027.30 1026.45 1026.25 1026.44 1027.05 1027.40 1027.10 1026.83 1026.62 1026.59 1026.46 1026.32 1024.78 1023.81 1022.08 1019.65 1019.19 1019.14 1019.64 1019.54 1019.29 1019.43 1019.41 1019.29 1018.89 1018.88 1018.92 1018.74 1018.35 1018.51 1018.47 1018.25 1018.16 1017.98 1017.68 1017.27 1017.10 1016.99 1016.96 1017.07 1017.22 1017.31 1017.26 1017.08 1017.00 1016.97 1016.73 1016.37 1016.04 1015.66 1015.36 1015.13
1027.91 1028.13 1028.12 1027.50 1026.91 1026.84 1027.07 1027.23 1026.67 1026.20 1026.13 1026.03 1026.25 1025.94 1025.31 1024.75 1023.00 1020.42 1018.99 1018.94 1019.17 1019.30 1018.96 1018.92 1018.65 1018.49 1018.30 1018.25 1018.17 1017.98 1017.89 1017.76 1017.60 1017.45 1017.14 1016.86 1016.58 1016.28 1016.09 1015.89 1015.83 1015.92 1016.12 1016.05 1015.87 1015.77 1015.69 1015.57 1015.37 1015.03 1014.74 1014.48 1014.15 1013.85
Wind_Speed
24 23 24 22 22 23 22 19 18 19 19 19 18 20 18 17 18 13 4 9 9 4 9 8 8 9 2 3 5 5 4 4 2 2 5 4 4 4 0 3 4 6 5 5 3 3 8 4 4 5 8 4 4 5
25 26 26 25 25 24 24 23 20 22 22 22 20 21 20 20 19 16 6 7 8 6 4 3 11 13 14 11 6 3 6 6 4 3 2 2 3 2 4 4 3 3 7 5 9 8 4 4 9 12 5 7 8 9
25 24 25 24 24 25 24 22 24 22 21 20 19 19 19 21 22 18 7 5 5 4 4 6 13 14 7 12 13 9 2 6 5 4 4 4 8 4 3 8 4 5 4 11 15 15 17 17 17 6 8 14 13 8
25 25 25 24 24 23 24 25 24 23 22 22 21 21 20 20 20 17 7 5 7 2 5 8 3 6 9 10 11 12 12 2 2 3 6 6 6 6 8 9 10 7 5 6 14 17 14 16 16 16 15 10 3 3
24 24 25 25 25 24 24 24 24 24 23 23 21 21 18 18 20 12 4 7 9 6 2 3 2 6 6 11 14 13 12 10 7 7 6 8 6 8 5 6 13 10 17 10 14 19 15 16 17 3 1 1 3 4
24 24 24 25 25 25 25 26 25 25 24 24 23 22 19 17 16 2 3 8 11 8 5 3 2 3 7 8 11 12 11 7 5 5 6 8 6 6 6 7 13 12 11 15 19 18 16 13 5 6 2 3 4 5
23 24 24 25 25 25 26 26 26 25 24 24 24 22 21 18 7 5 3 2 13 9 4 4 3 3 0 4 1 3 5 4 5 6 9 11 10 8 7 15 16 9 13 14 2 3 11 3 0 6 5 6 7 8
23 24 25 25 24 25 25 25 25 25 23 23 22 22 22 20 14 9 9 8 9 3 4 4 4 3 4 2 3 4 4 4 5 5 1 9 6 7 11 14 12 12 2 5 5 5 4 4 2 5 6 8 12 11
21 22 23 24 24 23 22 24 23 23 23 21 20 19 6 5 5 3 11 19 8 5 4 4 7 6 5 3 2 2 3 4 3 6 6 6 6 9 7 12 8 3 2 2 4 3 2 3 6 5 7 6 9 13
22 21 21 21 22 21 23 23 21 21 21 20 11 5 3 6 7 8 4 5 9 6 5 3 2 3 5 5 2 3 3 4 5 7 2 6 14 12 3 5 7 6 5 3 2 2 5 2 7 10 8 8 10 12
19 21 21 19 19 20 21 22 21 19 19 4 5 4 2 9 3 3 5 4 3 3 4 3 5 4 3 4 5 4 3 3 4 7 7 3 5 4 6 7 6 6 5 4 2 3 4 6 9 10 10 9 11 12
21 19 19 20 19 17 16 17 18 11 3 7 5 6 3 4 4 6 5 4 4 7 2 5 4 5 3 3 4 4 5 3 6 2 3 3 5 4 4 4 4 5 4 3 2 5 7 9 9 10 10 12 12 12
21 22 20 19 18 20 20 19 17 16 9 2 4 6 5 5 9 9 10 3 2 3 4 3 4 4 3 3 3 5 6 6 3 3 5 7 3 4 2 1 2 3 2 3 5 5 7 8 8 8 12 11 12 12
19 18 19 20 19 19 19 20 18 13 5 6 7 8 8 6 6 6 7 7 5 3 5 2 3 4 3 4 3 3 2 4 3 4 7 3 4 3 1 0 2 3 4 5 6 7 8 9 10 9 10 10 10 11
15 17 20 17 19 19 19 18 17 7 4 5 4 8 5 2 3 1 1 4 2 4 4 3 2 3 2 3 4 3 2 5 7 7 4 2 3 3 0 0 3 4 5 5 5 6 8 8 8 10 9 8 9 11
17 13 7 14 15 18 19 16 6 3 4 4 2 4 3 5 3 2 1 1 1 3 2 2 3 4 4 3 5 6 4 7 6 3 2 3 2 1 2 3 4 4 5 6 6 5 8 8 8 9 9 8 9 7
12 3 11 16 15 14 17 3 3 2 2 3 2 3 2 2 4 3 4 4 2 2 4 3 7 9 2 3 4 5 7 4 3 2 1 1 2 3 3 3 5 5 6 6 4 6 6 6 6 5 6 5 5 7
1 4 7 14 13 4 3 6 4 3 4 3 1 1 2 2 2 0 1 2 3 3 3 5 3 3 6 6 5 3 2 1 1 2 2 2 2 4 3 4 5 4 5 6 6 6 4 5 5 4 5 6 6 5
8 8 11 3 8 5 3 5 3 5 1 2 2 2 2 2 3 2 3 3 2 1 3 2 3 5 5 2 3 2 2 3 3 2 1 2 2 2 4 3 4 4 4 4 4 4 4 4 5 5 5 4 4 4
8 16 17 14 8 4 5 4 3 5 3 2 3 3 3 3 2 2 2 2 0 2 3 3 5 4 4 3 3 3 2 3 3 3 2 2 1 1 2 1 2 4 4 4 4 6 5 5 4 5 5 5 4 4
6 7 11 7 5 7 5 3 4 3 3 3 2 2 3 2 3 2 1 3 3 1 1 2 3 3 1 1 1 1 3 3 3 4 4 2 2 0 1 3 2 2 2 3 4 5 6 5 6 6 5 5 4 5
3 9 3 6 5 4 5 5 4 2 3 2 2 2 2 2 1 1 3 2 1 2 3 3 3 2 1 1 3 3 2 4 2 1 0 1 1 2 1 1 2 2 2 3 3 4 5 5 5 5 5 6 6 4
6 5 5 6 5 6 2 2 3 4 2 3 1 2 2 0 2 3 1 1 3 1 2 2 2 2 3 2 1 1 3 5 2 2 2 2 2 2 1 1 0 1 2 2 3 3 4 6 6 5 5 5 5 5
11 9 8 6 6 4 2 4 2 3 3 3 3 2 2 1 4 4 2 3 3 2 1 2 3 3 3 3 1 2 2 3 2 1 2 2 1 2 2 1 2 1 0 2 2 3 3 4 6 4 4 4 4 3
9 11 6 7 4 3 5 4 4 4 3 1 3 1 1 2 3 1 3 4 2 2 2 1 1 2 4 2 2 2 3 3 3 3 2 3 1 1 1 2 2 2 1 1 1 2 3 3 3 3 3 2 4 5
11 5 5 1 4 4 1 3 2 2 3 3 1 2 2 4 4 5 4 4 4 4 5 6 5 2 2 3 3 2 3 3 2 2 2 4 3 3 2 2 2 2 3 2 2 2 3 3 3 5 4 5 6 5
7 5 3 0 2 2 4 2 2 4 3 2 2 2 4 2 5 5 3 3 3 4 5 5 5 4 4 3 2 1 2 4 4 2 1 2 3 4 4 4 4 3 4 4 3 4 4 5 5 5 6 4 4 4
2 3 3 5 3 1 4 2 3 1 2 1 3 2 6 7 5 4 4 2 4 1 2 2 3 3 2 2 2 3 2 1 2 3 3 4 4 4 5 5 5 9 5 4 5 4 5 5 5 6 6 7 7 3
3 3 0 4 3 3 2 2 3 3 1 3 3 3 4 4 3 2 2 1 1 3 3 3 1 2 2 2 1 1 2 3 2 1 2 3 3 3 4 4 4 3 3 3 7 8 8 7 7 7 8 5 4 3
3 3 1 1 2 1 3 3 2 2 1 1 1 4 3 4 4 2 1 1 2 3 3 3 2 3 3 3 2 3 3 4 5 5 4 4 5 3 2 3 4 4 2 3 5 5 6 4 5 3 3 4 3 4
1 2 2 1 1 3 3 2 2 1 2 1 1 2 4 5 6 3 2 2 2 3 3 2 1 2 4 3 3 1 4 3 6 7 5 4 4 5 5 5 5 4 3 4 5 4 4 3 3 5 7 8 8 6
4 2 1 3 3 3 3 3 1 1 3 3 3 2 4 3 4 4 1 3 3 1 4 3 3 5 5 4 2 3 4 2 3 4 6 5 6 7 6 5 4 3 4 5 5 5 6 8 7 8 8 10 9 9
1 0 0 2 4 5 4 3 4 4 3 3 3 1 2 2 4 4 3 3 4 3 4 4 4 3 4 5 5 4 5 4 6 9 10 11 12 11 6 5 5 5 7 6 7 6 9 9 10 11 11 11 12 11
Wind_Direction
253 251 251 253 249 246 252 247 251 257 245 244 249 249 242 243 239 232 200 191 191 221 240 199 190 208 138 150 159 235 26 343 55 89 135 241 195 225 276 258 206 183 172 223 79 32 292 215 356 147 220 271 224 260
259 257 254 252 252 249 248 247 246 247 250 247 247 249 250 241 249 237 239 188 201 220 237 214 231 218 202 187 159 222 204 169 187 111 245 51 290 350 172 243 170 269 197 189 185 216 243 223 231 275 203 227 258 241
261 262 256 259 253 253 255 244 243 252 247 241 241 243 244 249 251 242 234 176 209 234 237 219 230 227 230 213 195 223 254 182 210 174 173 214 234 149 220 240 234 244 231 255 270 261 255 265 272 257 268 267 273 240
261 260 258 257 256 254 254 253 250 251 245 243 244 245 248 245 253 252 230 183 209 195 237 249 24 188 207 197 199 212 233 136 162 163 220 220 236 208 250 254 235 229 183 216 252 261 270 266 264 264 266 278 271 284
265 261 258 257 258 256 255 253 250 249 246 240 246 251 254 250 258 253 223 185 201 222 248 262 322 241 182 183 203 212 221 224 224 227 227 242 235 234 229 242 247 220 238 229 250 261 259 271 277 47 249 290 35 336
263 262 260 257 256 257 257 253 248 247 242 239 238 241 246 250 246 163 232 203 199 200 249 223 280 203 200 183 186 192 206 206 203 213 231 234 230 205 241 244 252 251 229 235 249 259 271 271 105 56 26 350 324 307
265 263 261 258 257 257 254 251 248 244 242 240 234 237 242 242 225 202 200 240 195 175 220 240 249 279 300 142 167 170 179 192 203 228 235 246 242 217 250 257 265 238 231 246 347 356 272 94 69 353 344 323 306 289
270 267 263 259 258 256 253 250 247 243 240 235 232 233 234 238 245 242 225 228 181 212 196 213 250 0 184 172 208 175 168 181 210 222 271 229 243 228 247 253 245 248 92 89 47 29 360 344 353 341 341 338 323 315
276 271 266 262 256 255 256 251 243 237 236 228 228 231 237 221 198 204 202 193 194 200 209 177 159 232 167 190 144 30 168 189 195 217 216 180 215 225 217 241 253 74 108 21 339 331 10 342 321 336 337 318 300 306
268 273 270 258 256 260 259 247 233 233 230 221 214 180 205 185 180 164 170 220 199 194 219 201 58 202 166 162 192 111 195 212 208 226 177 220 246 251 81 93 99 108 87 37 28 334 344 322 330 322 316 305 296 297
273 267 260 262 254 253 257 242 227 225 222 186 181 182 112 151 86 167 210 216 197 208 202 143 176 141 224 147 183 214 200 212 212 243 170 219 265 197 122 102 95 83 75 72 59 298 283 277 295 303 302 299 296 293
255 262 264 255 247 244 247 237 226 207 192 173 132 106 156 165 180 201 189 180 207 217 247 149 175 167 161 136 157 202 201 185 236 117 178 227 235 126 125 101 77 55 27 349 322 302 304 300 303 298 296 296 294 294
267 257 255 254 249 240 233 229 230 219 153 154 188 157 173 170 199 187 178 221 186 170 199 173 175 150 158 205 194 188 212 221 92 137 219 220 144 114 102 74 43 10 319 307 305 295 289 286 284 278 286 284 287 290
260 262 254 249 244 238 233 226 220 213 204 202 169 196 186 172 206 174 164 179 225 138 141 140 116 164 194 177 194 220 208 132 216 222 231 224 156 153 255 39 39 304 308 301 289 289 290 291 288 279 269 278 284 286
260 249 247 239 236 234 224 223 220 190 218 229 184 191 185 146 43 145 78 101 186 134 145 98 42 164 210 209 206 195 184 225 198 223 226 190 138 158 198 274 274 294 299 286 272 274 281 281 283 286 276 270 269 275
256 253 241 236 235 231 220 214 201 180 211 229 74 95 26 68 318 8 79 306 270 150 82 60 143 163 211 209 204 213 190 219 240 196 192 121 122 359 282 275 279 273 272 271 277 273 289 284 278 279 287 277 269 268
262 199 227 228 221 214 213 120 146 93 46 99 119 6 15 70 146 163 156 171 145 93 174 165 171 203 83 195 235 194 205 217 169 147 120 124 183 253 268 282 281 283 290 285 272 276 266 263 274 279 284 278 286 293
54 290 269 217 195 122 49 17 78 82 80 38 296 299 71 59 92 66 160 81 143 166 172 193 123 166 195 193 245 193 174 192 191 157 181 229 241 269 233 268 291 280 282 286 271 273 266 289 292 282 294 310 310 311
29 14 351 299 107 87 88 36 14 95 112 151 64 31 74 144 87 35 22 78 68 355 125 108 167 203 227 189 177 234 236 196 160 157 212 270 251 257 285 283 286 298 293 279 297 290 298 309 321 324 321 317 318 321
45 27 21 79 73 77 76 35 16 85 101 165 67 29 50 40 45 35 18 18 185 160 148 180 208 201 166 204 185 170 163 147 118 66 339 295 256 350 315 276 295 294 303 326 325 352 346 345 345 335 331 338 338 337
33 358 28 42 65 57 71 76 58 58 113 79 77 37 78 50 45 26 19 335 228 64 200 198 206 246 339 295 351 110 113 137 173 161 176 175 268 290 335 329 317 322 358 357 350 349 3 355 336 334 335 343 347 350
344 18 63 24 86 76 75 21 93 73 65 87 81 15 62 88 61 301 253 68 85 238 177 166 203 153 56 230 223 204 186 120 87 96 103 79 23 18 341 291 359 357 3 10 352 342 336 343 346 347 352 354 356 8
17 30 52 17 84 58 55 314 80 13 111 123 152 119 70 122 270 295 27 171 249 252 178 149 170 183 155 243 142 79 169 135 140 192 210 212 224 226 206 167 33 14 358 5 344 324 328 345 345 354 355 2 3 8
30 46 35 43 19 85 6 48 42 80 72 45 65 68 351 277 323 41 263 267 258 328 41 192 133 68 4 22 68 222 215 154 127 356 220 197 215 233 218 226 186 179 269 297 317 327 342 345 348 349 354 349 350 346
71 360 23 15 10 54 54 32 359 60 90 13 94 40 301 7 68 17 237 270 277 245 225 129 134 140 150 248 296 268 226 154 160 193 233 189 205 264 243 242 208 187 181 312 327 328 321 316 324 322 323 316 338 335
67 314 46 297 333 79 208 81 46 151 124 67 34 266 25 78 62 255 238 225 220 194 185 183 172 161 255 199 161 185 219 174 141 203 254 192 200 192 202 220 262 258 191 184 203 271 299 298 295 319 319 330 333 329
62 335 327 344 127 107 51 36 72 78 72 121 232 60 68 98 246 253 279 218 204 220 196 174 174 172 185 192 224 209 144 162 191 203 184 205 216 204 200 208 227 233 163 195 210 218 259 287 291 295 298 292 254 248
130 27 66 313 31 17 121 63 61 104 221 248 78 166 174 195 230 236 209 234 210 224 146 151 160 162 159 180 162 140 157 171 287 281 273 248 231 220 215 226 235 245 232 212 222 227 231 246 260 272 277 277 286 232
37 329 43 16 7 38 69 131 199 238 203 116 152 245 248 241 244 241 286 307 132 109 106 123 121 101 90 76 116 174 158 159 128 322 304 285 323 286 197 214 225 228 225 238 259 255 246 235 237 243 254 254 271 267
335 356 23 64 78 349 259 162 227 267 253 205 264 305 296 278 253 235 275 85 133 179 182 160 150 165 188 184 244 283 231 204 202 187 200 231 228 254 231 230 238 244 218 222 263 278 292 319 321 322 309 289 265 270
313 20 48 64 208 252 235 280 298 304 12 351 333 171 254 300 306 255 198 212 160 110 119 163 234 213 168 193 188 194 288 253 216 230 240 257 262 255 251 245 240 227 219 228 243 248 261 266 245 272 281 280 279 270
4 71 80 357 310 293 27 43 1 49 333 21 296 339 319 348 302 294 282 91 79 177 229 173 187 244 213 240 232 248 235 269 229 229 237 242 252 253 253 251 233 216 227 237 236 238 233 245 261 261 268 273 274 271
13 64 153 358 356 1 334 27 18 345 12 1 302 242 234 188 252 290 307 185 190 195 218 225 236 240 235 231 234 253 247 249 261 266 265 256 253 257 254 240 227 218 229 240 244 238 244 247 257 261 263 263 267 269